Change the Weather History Date:

Monday, December 24, 2012

  Actual Average (KTOL) Record (KTOL)
Temperature  
Mean Temperature 28 °F 27 °F  
Max Temperature 35 °F 34 °F 65 °F (1889)
Min Temperature 21 °F 21 °F -15 °F (1983)
Degree Days  
Heating Degree Days 37 38  
Month to date heating degree days 824  
Since 1 July heating degree days 2057  
Cooling Degree Days 0 0  
Month to date cooling degree days 0  
Year to date cooling degree days 793  
Moisture  
Dew Point 25 °F    
Average Humidity 82    
Maximum Humidity 89    
Minimum Humidity 69    
Precipitation  
Precipitation 0.00 in 0.09 in 1.22 in (1979)
Month to date precipitation 2.11  
Year to date precipitation 33.67  
Snow  
Snow 0.00 in 0.30 in - ()
Month to date snowfall 5.3  
Since 1 July snowfall 7.4  
Snow Depth -    
Sea Level Pressure  
Sea Level Pressure 29.90 in    
Wind  
Wind Speed 3 mph (ENE)    
Max Wind Speed 12 mph    
Max Gust Speed 21 mph    
Visibility 9 miles    
Events Snow    
T = Trace of Precipitation, MM = Missing Value Source: NWS Daily Summary

Daily Weather History Graph

Daily Weather History Graph

Search for Another Location

Airport or City:

Trip Planner

Search our weather history database for the weather conditions in past years. The results will help you decide how hot, cold, wet, or windy it might be!

Date:

Astronomy

Dec. 24, 2012 Rise Set
Actual Time 8:00 AM EST 5:09 PM EST
Civil Twilight 7:28 AM EST 5:40 PM EST
Nautical Twilight 6:53 AM EST 6:15 PM EST
Astronomical Twilight 6:19 AM EST 6:49 PM EST
Moon 2:36 PM EST (12/24) 4:36 AM EST (12/24)
Length of Visible Light 10h 12m
Length of Day
9h 09m
Waxing Gibbous, 88% of the Moon is Illuminated
Dec 24
Waxing Gibbous
Dec 28
Full
Jan 4
Last Quarter
Jan 11
New
Jan 18
First Quarter

Hourly Weather History & Observations

Time (EST) Temp. Windchill Dew Point Humidity Pressure Visibility Wind Dir Wind Speed Gust Speed Precip Events Conditions
12:15 AM 22.8 °F - 19.2 °F 86% 30.00 in 10.0 mi Calm Calm - N/A   Clear
12:35 AM 22.1 °F - 18.5 °F 86% 29.99 in 10.0 mi Calm Calm - N/A   Clear
12:54 AM 21.2 °F - 17.6 °F 86% 29.99 in 10.0 mi Calm Calm - N/A   Clear
1:15 AM 21.6 °F - 18.0 °F 86% 29.99 in 7.0 mi Calm Calm - N/A   Clear
1:34 AM 22.1 °F - 18.5 °F 86% 29.99 in 10.0 mi Calm Calm - N/A   Clear
1:55 AM 21.0 °F - 17.2 °F 85% 30.00 in 10.0 mi Calm Calm - N/A   Clear
2:15 AM 21.6 °F - 18.1 °F 87% 29.99 in 10.0 mi Calm Calm - N/A   Clear
2:34 AM 21.4 °F - 18.3 °F 88% 29.99 in 10.0 mi Calm Calm - N/A   Clear
2:55 AM 22.5 °F - 19.0 °F 87% 30.00 in 10.0 mi Calm Calm - N/A   Clear
3:14 AM 22.5 °F - 19.0 °F 87% 29.99 in 10.0 mi Calm Calm - N/A   Clear
3:34 AM 22.3 °F - 18.7 °F 86% 29.99 in 10.0 mi Calm Calm - N/A   Clear
3:55 AM 23.0 °F - 19.2 °F 85% 29.98 in 10.0 mi Calm Calm - N/A   Scattered Clouds
4:14 AM 23.4 °F - 20.1 °F 87% 29.97 in 10.0 mi Calm Calm - N/A   Mostly Cloudy
4:35 AM 23.4 °F - 20.1 °F 87% 29.96 in 10.0 mi Calm Calm - N/A   Scattered Clouds
4:55 AM 23.9 °F - 20.7 °F 87% 29.94 in 10.0 mi Calm Calm - N/A   Clear
5:14 AM 25.5 °F 21.3 °F 21.6 °F 85% 29.95 in 10.0 mi NE 3.5 mph - N/A   Clear
5:35 AM 24.1 °F - 20.5 °F 86% 29.94 in 10.0 mi Calm Calm - N/A   Clear
5:54 AM 23.9 °F - 19.9 °F 85% 29.95 in 10.0 mi Calm Calm - N/A   Mostly Cloudy
6:15 AM 25.3 °F 21.1 °F 21.9 °F 87% 29.93 in 10.0 mi East 3.5 mph - N/A   Overcast
6:35 AM 28.4 °F - 24.4 °F 85% 29.93 in 10.0 mi Calm Calm - N/A   Overcast
6:54 AM 30.0 °F 26.5 °F 25.5 °F 83% 29.93 in 10.0 mi ESE 3.5 mph - N/A   Overcast
7:15 AM 30.9 °F 27.5 °F 26.1 °F 82% 29.93 in 10.0 mi ESE 3.5 mph - N/A   Overcast
7:34 AM 32.0 °F 26.4 °F 25.7 °F 78% 29.92 in 10.0 mi SE 5.8 mph - N/A   Mostly Cloudy
7:55 AM 32.0 °F 26.4 °F 25.3 °F 76% 29.92 in 10.0 mi East 5.8 mph - N/A   Mostly Cloudy
8:15 AM 32.0 °F 26.4 °F 25.2 °F 76% 29.91 in 10.0 mi ESE 5.8 mph - N/A   Scattered Clouds
8:34 AM 31.8 °F 23.9 °F 25.3 °F 77% 29.90 in 10.0 mi ESE 9.2 mph - N/A   Clear
8:55 AM 32.0 °F 25.6 °F 24.8 °F 75% 29.91 in 10.0 mi ESE 6.9 mph - N/A   Scattered Clouds
9:14 AM 32.0 °F 26.4 °F 24.6 °F 74% 29.92 in 10.0 mi SE 5.8 mph - N/A   Scattered Clouds
9:35 AM 32.0 °F 24.8 °F 24.6 °F 74% 29.92 in 10.0 mi ESE 8.1 mph - N/A   Clear
9:55 AM 32.0 °F 26.4 °F 25.2 °F 76% 29.91 in 10.0 mi ESE 5.8 mph - N/A   Clear
10:14 AM 32.5 °F 24.2 °F 25.2 °F 74% 29.92 in 10.0 mi East 10.4 mph - N/A   Clear
10:35 AM 33.3 °F 26.4 °F 25.0 °F 72% 29.93 in 10.0 mi East 8.1 mph - N/A   Clear
10:54 AM 33.8 °F 26.4 °F 25.2 °F 71% 29.90 in 10.0 mi East 9.2 mph - N/A   Clear
11:14 AM 34.5 °F 26.2 °F 25.7 °F 70% 29.86 in 10.0 mi East 11.5 mph 18.4 mph N/A   Clear
11:35 AM 35.2 °F 28.1 °F 26.1 °F 69% 29.86 in 10.0 mi East 9.2 mph 20.7 mph N/A   Clear
11:54 AM 34.3 °F 27.7 °F 26.1 °F 72% 29.86 in 10.0 mi ESE 8.1 mph - N/A   Scattered Clouds
12:15 PM 34.7 °F 29.6 °F 26.6 °F 72% 29.86 in 10.0 mi East 5.8 mph - N/A   Overcast
12:34 PM 34.2 °F 28.2 °F 26.4 °F 73% 29.85 in 10.0 mi East 6.9 mph - N/A   Overcast
12:54 PM 34.0 °F 26.0 °F 26.6 °F 74% 29.85 in 10.0 mi East 10.4 mph - N/A   Overcast
1:15 PM 34.0 °F 29.8 °F 27.0 °F 75% 29.86 in 10.0 mi East 4.6 mph - N/A   Overcast
1:34 PM 33.8 °F 26.4 °F 27.3 °F 77% 29.83 in 10.0 mi East 9.2 mph - N/A   Overcast
1:55 PM 33.8 °F 27.0 °F 27.9 °F 79% 29.80 in 3.0 mi ENE 8.1 mph - N/A Snow Light Snow
2:14 PM 35.1 °F 27.9 °F 28.8 °F 78% 29.80 in 10.0 mi East 9.2 mph 17.3 mph N/A   Mostly Cloudy
2:34 PM 35.1 °F 27.9 °F 28.6 °F 77% 29.81 in 10.0 mi East 9.2 mph 18.4 mph N/A   Mostly Cloudy
2:55 PM 34.7 °F 26.4 °F 28.4 °F 78% 29.80 in 10.0 mi ENE 11.5 mph - N/A   Overcast
3:14 PM 34.7 °F 27.5 °F 28.2 °F 77% 29.80 in 10.0 mi East 9.2 mph - N/A   Overcast
3:34 PM 34.3 °F 27.0 °F 28.4 °F 79% 29.80 in 10.0 mi East 9.2 mph 17.3 mph N/A   Overcast
3:55 PM 34.2 °F 28.2 °F 28.4 °F 79% 29.81 in 5.0 mi East 6.9 mph - N/A Snow Light Snow
4:14 PM 33.6 °F 27.5 °F 29.3 °F 84% 29.81 in 1.5 mi East 6.9 mph - N/A Snow Light Snow
4:35 PM 33.3 °F 25.7 °F 30.0 °F 88% 29.80 in 2.5 mi East 9.2 mph - N/A Snow Light Snow
4:55 PM 33.3 °F 27.1 °F 30.2 °F 89% 29.80 in 4.0 mi East 6.9 mph - N/A Snow Light Snow
5:15 PM 33.4 °F 28.1 °F 30.2 °F 88% 29.81 in 7.0 mi ENE 5.8 mph - N/A   Overcast
5:35 PM 33.4 °F 30.4 °F 30.2 °F 88% 29.81 in 10.0 mi NE 3.5 mph - N/A   Overcast
5:54 PM 33.1 °F 27.7 °F 30.2 °F 89% 29.83 in 5.0 mi NNE 5.8 mph - N/A Snow Light Snow
6:15 PM 32.4 °F 26.9 °F 29.5 °F 89% 29.85 in 7.0 mi North 5.8 mph - N/A   Overcast
6:34 PM 32.0 °F - 28.9 °F 88% 29.86 in 10.0 mi Calm Calm - N/A   Overcast
6:54 PM 32.0 °F 28.7 °F 28.8 °F 88% 29.87 in 7.0 mi North 3.5 mph - N/A   Overcast
7:15 PM 32.0 °F 28.7 °F 28.4 °F 87% 29.88 in 10.0 mi North 3.5 mph - N/A   Overcast
7:34 PM 32.0 °F - 28.2 °F 86% 29.88 in 7.0 mi Calm Calm - N/A   Overcast
7:55 PM 32.0 °F 27.5 °F 28.0 °F 85% 29.89 in 5.0 mi North 4.6 mph - N/A   Overcast
8:15 PM 31.6 °F 27.0 °F 27.9 °F 86% 29.90 in 5.0 mi North 4.6 mph - N/A   Overcast
8:34 PM 31.5 °F 25.8 °F 27.5 °F 85% 29.90 in 5.0 mi North 5.8 mph - N/A   Overcast
8:55 PM 31.1 °F 26.4 °F 27.5 °F 87% 29.91 in 7.0 mi NNW 4.6 mph - N/A   Overcast
9:15 PM 31.1 °F 25.4 °F 27.3 °F 86% 29.92 in 7.0 mi NNW 5.8 mph - N/A   Overcast
9:34 PM 31.1 °F 27.7 °F 27.1 °F 85% 29.93 in 10.0 mi North 3.5 mph - N/A   Overcast
9:55 PM 31.3 °F 26.6 °F 26.6 °F 83% 29.93 in 10.0 mi NNW 4.6 mph - N/A   Overcast
10:14 PM 31.3 °F - 26.6 °F 83% 29.93 in 10.0 mi Calm Calm - N/A   Overcast
10:35 PM 31.1 °F 25.4 °F 26.6 °F 83% 29.94 in 10.0 mi North 5.8 mph - N/A   Overcast
10:54 PM 31.1 °F 25.4 °F 27.0 °F 85% 29.95 in 10.0 mi NNW 5.8 mph - N/A   Overcast
11:14 PM 31.1 °F 26.4 °F 27.0 °F 85% 29.96 in 10.0 mi NNW 4.6 mph - N/A   Overcast
11:35 PM 31.1 °F 26.4 °F 26.6 °F 83% 29.97 in 10.0 mi NNW 4.6 mph - N/A   Overcast
11:54 PM 31.1 °F 25.4 °F 26.6 °F 83% 29.98 in 10.0 mi NNW 5.8 mph - N/A   Overcast